| time (UTC) | temp F | wind direction | speed knots | gust knots | rain 1hr in | rain 24hr in | rain mn in | humidity % | barometer mb |
| 20260509234552 | 75 | 5 | 0.0 | 3.5 | 0.00 | 0.00 | 0.00 | 74 | 1008.6 |
| 20260509233051 | 76 | 279 | 0.9 | 2.6 | 0.00 | 0.00 | 0.00 | 71 | 1009.0 |
| 20260509231552 | 75 | 198 | 0.0 | 1.7 | 0.00 | 0.00 | 0.00 | 71 | 1008.7 |
| 20260509230051 | 75 | 210 | 2.6 | 3.5 | 0.00 | 0.00 | 0.00 | 70 | 1008.6 |
| 20260509224552 | 76 | 291 | 0.9 | 6.1 | 0.00 | 0.00 | 0.00 | 67 | 1008.9 |
| 20260509223056 | 78 | 296 | 0.9 | 4.3 | 0.00 | 0.00 | 0.00 | 67 | 1008.4 |
| 20260509221551 | 80 | 290 | 3.5 | 9.6 | 0.00 | 0.00 | 0.00 | 69 | 1008.7 |
| 20260509220056 | 84 | 290 | 2.6 | 7.8 | 0.00 | 0.00 | 0.00 | 72 | 1008.0 |
| 20260509214610 | 84 | 38 | 0.9 | 3.5 | 0.00 | 0.00 | 0.00 | 71 | 1007.9 |
| 20260509213049 | 86 | 245 | 4.3 | 7.0 | 0.00 | 0.00 | 0.00 | 69 | 1008.2 |
| 20260509211550 | 88 | 252 | 0.9 | 1.7 | 0.00 | 0.00 | 0.00 | 64 | 1008.1 |
| 20260509210100 | 88 | 252 | 0.9 | 2.6 | 0.00 | 0.00 | 0.00 | 63 | 1008.3 |
| 20260509204557 | 90 | 259 | 2.6 | 7.0 | 0.00 | 0.00 | 0.00 | 58 | 1008.4 |
| 20260509203102 | 90 | 238 | 1.7 | 4.3 | 0.00 | 0.00 | 0.00 | 62 | 1008.7 |
| 20260509201552 | 89 | 213 | 0.9 | 5.2 | 0.00 | 0.00 | 0.00 | 67 | 1008.8 |
| 20260509200051 | 87 | 322 | 0.9 | 4.3 | 0.00 | 0.00 | 0.00 | 71 | 1008.7 |
| 20260509194553 | 88 | 0 | 1.7 | 8.7 | 0.00 | 0.00 | 0.00 | 66 | 1009.0 |
| 20260509193058 | 87 | 250 | 0.9 | 7.0 | 0.00 | 0.00 | 0.00 | 70 | 1009.0 |
| 20260509191601 | 88 | 273 | 4.3 | 7.0 | 0.00 | 0.00 | 0.00 | 69 | 1009.2 |
| 20260509190055 | 87 | 257 | 1.7 | 6.1 | 0.00 | 0.00 | 0.00 | 72 | 1009.5 |
| 20260509184559 | 86 | 224 | 0.9 | 6.1 | 0.00 | 0.00 | 0.00 | 71 | 1009.7 |
| 20260509183058 | 86 | 192 | 2.6 | 4.3 | 0.00 | 0.00 | 0.00 | 70 | 1009.8 |
| 20260509181558 | 87 | 186 | 2.6 | 7.8 | 0.00 | 0.00 | 0.00 | 70 | 1010.0 |
| 20260509180050 | 86 | 178 | 1.7 | 7.0 | 0.00 | 0.00 | 0.00 | 74 | 1010.3 |
| 20260509174619 | 84 | 202 | 3.5 | 8.7 | 0.00 | 0.00 | 0.00 | 77 | 1010.4 |
| 20260509173054 | 84 | 196 | 2.6 | 6.1 | 0.00 | 0.00 | 0.00 | 76 | 1010.6 |
| 20260509171554 | 83 | 0 | 0.0 | 3.5 | 0.00 | 0.00 | 0.00 | 79 | 1010.7 |
| 20260509170106 | 82 | 188 | 2.6 | 5.2 | 0.00 | 0.00 | 0.00 | 77 | 1010.9 |
| 20260509164556 | 82 | 170 | 0.9 | 6.1 | 0.00 | 0.00 | 0.00 | 78 | 1011.1 |
| 20260509163057 | 82 | 0 | 0.0 | 3.5 | 0.00 | 0.00 | 0.00 | 80 | 1011.0 |
| 20260509161602 | 81 | 0 | 0.0 | 2.6 | 0.00 | 0.00 | 0.00 | 82 | 1010.7 |
| 20260509160058 | 82 | 275 | 0.0 | 1.7 | 0.00 | 0.00 | 0.00 | 82 | 1010.9 |
| 20260509154601 | 80 | 276 | 0.0 | 2.6 | 0.00 | 0.00 | 0.00 | 85 | 1011.0 |
| 20260509153113 | 79 | 267 | 0.9 | 6.1 | 0.00 | 0.00 | 0.00 | 88 | 1010.9 |
| 20260509151559 | 78 | 0 | 1.7 | 5.2 | 0.00 | 0.00 | 0.00 | 90 | 1010.9 |
| 20260509150103 | 76 | 0 | 0.9 | 3.5 | 0.00 | 0.00 | 0.00 | 96 | 1010.9 |
| 20260509144550 | 75 | 241 | 1.7 | 2.6 | 0.00 | 0.00 | 0.00 | 97 | 1010.4 |
| 20260509143052 | 76 | 182 | 0.0 | 1.7 | 0.00 | 0.00 | 0.00 | 98 | 1010.2 |
| 20260509141555 | 75 | 183 | 0.0 | 2.6 | 0.00 | 0.00 | 0.00 | 98 | 1010.1 |
| 20260509140052 | 74 | 182 | 0.9 | 2.6 | 0.00 | 0.00 | 0.00 | 98 | 1010.0 |
| 20260509134549 | 74 | 0 | 0.0 | 2.6 | 0.00 | 0.00 | 0.00 | 98 | 1010.3 |
| 20260509133051 | 74 | 182 | 0.9 | 3.5 | 0.00 | 0.00 | 0.00 | 98 | 1010.8 |
| 20260509131552 | 73 | 186 | 0.0 | 3.5 | 0.00 | 0.00 | 0.00 | 98 | 1010.6 |
| 20260509130104 | 73 | 159 | 1.7 | 7.0 | 0.00 | 0.00 | 0.00 | 98 | 1010.3 |
| 20260509124555 | 0 | 0.0 | 0.0 | 0.00 | 0.00 | 0.00 | 1010.6 | ||
| 20260509123054 | 0 | 0.0 | 0.0 | 0.00 | 0.00 | 0.00 | 1011.1 | ||
| 20260509121616 | 0 | 0.0 | 0.0 | 0.00 | 0.00 | 0.00 | 1010.9 | ||
| 20260509120055 | 0 | 0.0 | 0.0 | 0.00 | 0.00 | 0.00 | 1010.9 | ||
| 20260509114559 | 0 | 0.0 | 0.0 | 0.00 | 0.00 | 0.00 | 1010.5 | ||
| 20260509113058 | 0 | 0.0 | 0.0 | 0.00 | 0.00 | 0.00 | 1010.7 | ||
| 20260509111553 | 0 | 0.0 | 0.0 | 0.00 | 0.00 | 0.00 | 1010.5 | ||
| 20260509110052 | 0 | 0.0 | 0.0 | 0.00 | 0.00 | 0.00 | 1010.3 | ||
| 20260509104556 | 0 | 0.0 | 0.0 | 0.00 | 0.00 | 0.00 | 1010.9 | ||
| 20260509103100 | 0 | 0.0 | 0.0 | 0.00 | 0.00 | 0.00 | 1010.4 | ||
| 20260509101603 | 0 | 0.0 | 0.0 | 0.00 | 0.00 | 0.00 | 1009.6 | ||
| 20260509100054 | 0 | 0.0 | 0.0 | 0.00 | 0.00 | 0.00 | 1009.7 | ||
| 20260509094603 | 0 | 0.0 | 0.0 | 0.00 | 0.00 | 0.00 | 1010.0 | ||
| 20260509093052 | 0 | 0.0 | 0.0 | 0.00 | 0.00 | 0.00 | 1010.0 | ||
| 20260509091605 | 0 | 0.0 | 0.0 | 0.00 | 0.00 | 0.00 | 1009.9 | ||
| 20260509090101 | 0 | 0.0 | 0.0 | 0.00 | 0.00 | 0.00 | 1009.9 | ||
| 20260509084554 | 0 | 0.0 | 0.0 | 0.00 | 0.00 | 0.00 | 1010.1 | ||
| 20260509083101 | 0 | 0.0 | 0.0 | 0.00 | 0.00 | 0.00 | 1010.1 | ||
| 20260509081552 | 0 | 0.0 | 0.0 | 0.00 | 0.00 | 0.00 | 1010.2 | ||
| 20260509080054 | 0 | 0.0 | 0.0 | 0.00 | 0.00 | 0.00 | 1010.3 | ||
| 20260509074554 | 0 | 0.0 | 0.0 | 0.00 | 0.00 | 0.00 | 1010.0 | ||
| 20260509073054 | 0 | 0.0 | 0.0 | 0.00 | 0.00 | 0.00 | 1009.9 | ||
| 20260509071553 | 0 | 0.0 | 0.0 | 0.00 | 0.00 | 0.00 | 1010.1 | ||
| 20260509070054 | 0 | 0.0 | 0.0 | 0.00 | 0.00 | 0.00 | 1010.1 | ||
| 20260509064553 | 0 | 0.0 | 0.0 | 0.00 | 0.00 | 0.00 | 1009.8 | ||
| 20260509063052 | 0 | 0.0 | 0.0 | 0.00 | 0.00 | 0.00 | 1009.7 | ||
| 20260509061551 | 0 | 0.0 | 0.0 | 0.00 | 0.00 | 0.00 | 1010.0 | ||
| 20260509060104 | 0 | 0.0 | 0.0 | 0.00 | 0.00 | 0.00 | 1010.3 | ||
| 20260509054551 | 0 | 0.0 | 0.0 | 0.00 | 0.00 | 0.00 | 1010.7 | ||
| 20260509053112 | 0 | 0.0 | 0.0 | 0.00 | 0.00 | 0.00 | 1010.5 | ||
| 20260509051554 | 0 | 0.0 | 0.0 | 0.00 | 0.00 | 0.00 | 1010.6 | ||
| 20260509050054 | 0 | 0.0 | 0.0 | 0.00 | 0.00 | 0.00 | 1010.6 | ||
| 20260509044631 | 0 | 1.7 | 0.0 | 0.00 | 0.00 | 0.00 | 1010.5 | ||
| 20260509043132 | 73 | 93 | 0.9 | 7.0 | 0.00 | 0.00 | 0.00 | 89 | 1010.4 |
| 20260509041551 | 73 | 100 | 0.9 | 6.1 | 0.00 | 0.00 | 0.00 | 89 | 1010.5 |
| 20260509034555 | 73 | 91 | 0.0 | 2.6 | 0.00 | 0.00 | 0.00 | 89 | 1010.3 |
| 20260509033058 | 73 | 90 | 0.9 | 3.5 | 0.00 | 0.00 | 0.00 | 89 | 1010.2 |
| 20260509031601 | 73 | 92 | 0.0 | 2.6 | 0.00 | 0.00 | 0.00 | 89 | 1010.0 |
| 20260509030112 | 73 | 90 | 1.7 | 6.1 | 0.00 | 0.00 | 0.00 | 88 | 1009.9 |
| 20260509024553 | 74 | 76 | 2.6 | 6.1 | 0.00 | 0.00 | 0.00 | 88 | 1009.7 |
| 20260509023058 | 74 | 89 | 2.6 | 7.0 | 0.00 | 0.00 | 0.00 | 88 | 1009.6 |
| 20260509021556 | 74 | 98 | 1.7 | 5.2 | 0.00 | 0.00 | 0.00 | 88 | 1009.5 |
| 20260509020105 | 74 | 81 | 1.7 | 6.1 | 0.00 | 0.00 | 0.00 | 88 | 1009.4 |
| 20260509014558 | 74 | 80 | 1.7 | 3.5 | 0.00 | 0.00 | 0.00 | 88 | 1009.4 |
| 20260509013100 | 74 | 78 | 1.7 | 6.1 | 0.00 | 0.00 | 0.00 | 87 | 1009.1 |
| 20260509011558 | 75 | 86 | 2.6 | 7.8 | 0.00 | 0.00 | 0.00 | 86 | 1009.2 |
| 20260509010056 | 75 | 98 | 1.7 | 6.1 | 0.00 | 0.00 | 0.00 | 86 | 1009.1 |
| 20260509004558 | 75 | 94 | 0.9 | 6.1 | 0.00 | 0.00 | 0.00 | 86 | 1009.0 |
| 20260509003056 | 76 | 0 | 0.9 | 2.6 | 0.00 | 0.00 | 0.00 | 85 | 1009.0 |
| 20260509001551 | 76 | 84 | 1.7 | 7.0 | 0.00 | 0.00 | 0.00 | 85 | 1008.9 |
| 20260509000054 | 76 | 96 | 0.9 | 5.2 | 0.00 | 0.00 | 0.00 | 84 | 1009.0 |